Regional Weather Roundup
Issued by NWS Albany, NY

Home | Current Version | Previous Version | Text Only | Print | Product List | Glossary On
Versions: 1 2 3 4 5 6 7 8 9 10 11 12 13 14 15 16 17 18 19 20 21 22 23 24 25 26 27 28 29 30 31 32 33 34 35 36 37 38 39 40 41 42 43 44 45 46 47 48 49 50
000
ASUS41 KALY 020010
RWRALY

NEW YORK STATE HOURLY WEATHER ROUNDUP
NATIONAL WEATHER SERVICE ALBANY NY
800 PM EDT WED APR 01 2015

NOTE: "FAIR" INDICATES FEW OR NO CLOUDS BELOW 12,000 FEET WITH NO
SIGNIFICANT WEATHER AND/OR NO OBSTRUCTIONS TO VISIBILITY.

NYZ032-033-038>043-046>054-057>066-NYZ062>081-020100-
EAST


CITY           SKY/WX    TMP DP  RH WIND       PRES   REMARKS
ALBANY         PTCLDY    37   7  28 W15       30.15R WCI  28
GLENS FALLS    CLEAR     36  14  40 NE6       30.13R WCI  31
POUGHKEEPSIE   CLEAR     44   5  20 NW3       30.13R
NEWBURGH       CLEAR     43  12  28 W10       30.14R
MONTGOMERY     CLEAR     44   5  20 VRB5      30.14R
WHITE PLAINS   CLEAR     45  13  27 W9        30.13R
ISLIP          CLEAR     46  15  28 W8        30.13R
NEW YORK CITY  CLEAR     48  18  30 NW13      30.15R
CENTRAL PARK   CLEAR     48  13  24 NW8       30.18R
$$

NYZ005>009-017-018-044>046-055-056-020100-
CENTRAL


CITY           SKY/WX    TMP DP  RH WIND       PRES   REMARKS
FULTON         CLEAR     33   4  29 CALM      30.17F
SYRACUSE       PTCLDY    34   8  33 CALM      30.18F
ROME           CLEAR     30   9  41 NW6       30.20S WCI  24
ELMIRA         CLEAR     40  17  39 E5        30.13F
BINGHAMTON     CLEAR     33  15  47 NE5       30.12S WCI  29
MONTICELLO     CLEAR     36   9  32 W7        30.15R WCI  30
$$

NYZ026>034-041>043-020100-
NORTH


CITY           SKY/WX    TMP DP  RH WIND       PRES   REMARKS
WATERTOWN      CLEAR     31  14  49 S3        30.17F
FORT DRUM      NOT AVBL
MASSENA        CLEAR     31   9  39 S5        30.15F WCI  26
SARANAC LAKE   CLEAR     28   2  32 W3        30.08R
PLATTSBURGH    CLEAR     32   2  27 NW3       30.14R
$$

NYZ001>004-010>016-019>021-020100-
WEST


CITY           SKY/WX    TMP DP  RH WIND       PRES   REMARKS
NIAGARA FALLS  PTCLDY    38  20  48 SE5       30.11F WCI  34
BUFFALO        PTCLDY    41  29  62 S3        30.11F
DUNKIRK        CLEAR     40  29  64 NE3       30.11F
JAMESTOWN      CLEAR     39  28  65 SE5       30.10F
WELLSVILLE     CLEAR     39  26  59 SW3       30.12F
ROCHESTER      CLEAR     37  13  37 E6        30.14F WCI  32
PENN YAN       CLEAR     34  20  56 E3        30.14F
$$

             KEY
       WCI = WIND CHILL INDEX
       VSB = VISIBILITY
       HX  = HEAT INDEX
$$


USA.gov is the U.S. government's official web portal to all federal, state and local government web resources and services.